DB0SVX Weather Reports


Display with metric or nautical units.
time (UTC)temp
F
wind
direction
speed
MPH
gust
MPH
rain 1hr
in
rain 24hr
in
rain mn
in
humidity
%
barometer
mb
20260503054020 52 112 0.0 0.0 0.00 0.00 0.00 45 1014.2
20260503052520 50 112 0.0 0.0 0.00 0.00 0.00 45 1014.2
20260503051020 49 112 0.0 0.0 0.00 0.00 0.00 45 1014.4
20260503045520 48 112 0.0 0.0 0.00 0.00 0.00 45 1014.5
20260503044020 46 112 0.0 0.0 0.00 0.00 0.00 46 1014.5
20260503042520 45 112 0.0 0.0 0.00 0.00 0.00 47 1014.5
20260503041020 45 112 0.0 0.0 0.00 0.00 0.00 48 1014.4
20260503035520 45 112 0.0 0.0 0.00 0.00 0.00 48 1014.4
20260503034020 45 112 0.0 0.0 0.00 0.00 0.00 49 1014.4
20260503032520 45 157 0.0 0.0 0.00 0.00 0.00 49 1014.4
20260503031020 46 157 0.0 0.0 0.00 0.00 0.00 49 1014.4
20260503025520 46 157 0.0 0.0 0.00 0.00 0.00 50 1014.5
20260503024020 46 157 0.0 0.0 0.00 0.00 0.00 50 1014.5
20260503022520 47 157 0.0 0.0 0.00 0.00 0.00 50 1014.5
20260503021020 47 157 0.0 0.0 0.00 0.00 0.00 50 1014.7
20260503015520 48 157 0.0 0.0 0.00 0.00 0.00 50 1014.7
20260503014020 48 157 0.0 0.0 0.00 0.00 0.00 50 1014.5
20260503012520 48 157 0.0 0.0 0.00 0.00 0.00 50 1014.7
20260503011020 48 157 0.0 0.0 0.00 0.00 0.00 50 1014.5
20260503005520 48 157 0.0 0.0 0.00 0.00 0.00 51 1014.7
20260503004020 48 157 0.0 0.0 0.00 0.00 0.00 51 1014.7
20260503002520 48 157 0.0 0.0 0.00 0.00 0.00 51 1014.9
20260503001020 49 157 0.0 0.0 0.00 0.00 0.00 51 1015.0
20260502235520 48 157 0.0 0.0 0.00 0.00 0.00 51 1015.2
20260502234020 49 157 0.0 0.0 0.00 0.00 0.00 51 1015.0
20260502232520 49 157 0.0 0.0 0.00 0.00 0.00 52 1015.0
20260502231020 50 157 0.0 0.0 0.00 0.00 0.00 52 1015.2
20260502225520 50 157 0.0 0.0 0.00 0.00 0.00 52 1015.2
20260502224020 50 157 0.0 0.0 0.00 0.00 0.00 52 1015.2
20260502222520 50 157 0.0 0.0 0.00 0.00 0.00 52 1015.5
20260502221020 51 157 0.0 0.0 0.00 0.00 0.00 51 1015.4
20260502215520 51 157 0.0 0.0 0.00 0.00 0.00 51 1015.4
20260502214020 52 157 0.0 0.0 0.00 0.00 0.00 50 1015.4
20260502212520 53 157 0.0 0.0 0.00 0.00 0.00 50 1015.4
20260502211020 54 157 0.0 0.0 0.00 0.00 0.00 49 1015.5
20260502205520 55 157 0.0 0.0 0.00 0.00 0.00 48 1015.5
20260502204020 55 157 0.0 0.0 0.00 0.00 0.00 47 1015.7
20260502202520 56 157 0.0 0.0 0.00 0.00 0.00 46 1015.9
20260502201020 57 157 0.0 0.0 0.00 0.00 0.00 45 1015.9
20260502195520 57 157 0.0 0.0 0.00 0.00 0.00 44 1016.0
20260502194020 58 157 0.0 0.0 0.00 0.00 0.00 42 1016.0
20260502192520 59 157 0.0 0.0 0.00 0.00 0.00 41 1016.0
20260502191020 60 157 0.0 0.0 0.00 0.00 0.00 39 1015.9
20260502185520 62 157 0.0 0.0 0.00 0.00 0.00 36 1015.7
20260502184020 64 157 0.0 0.0 0.00 0.00 0.00 34 1015.5
20260502182520 66 157 0.0 0.0 0.00 0.00 0.00 32 1015.7
20260502181020 69 157 0.0 0.0 0.00 0.00 0.00 30 1015.5
20260502164020 87 67 0.0 0.0 0.00 0.00 0.00 20 1016.0
20260502162520 89 0 3.0 0.0 0.00 0.00 0.00 20 1016.2
20260502161020 90 0 0.0 0.0 0.00 0.00 0.00 19 1016.2
20260502151020 93 292 0.0 0.0 0.00 0.00 0.00 18 1016.9
20260502122520 86 90 0.0 0.0 0.00 0.00 0.00 23 1018.7
20260502121020 88 315 3.0 0.0 0.00 0.00 0.00 24 1018.9
20260502115520 87 225 0.0 0.0 0.00 0.00 0.00 24 1019.0
20260502114020 87 225 2.0 0.0 0.00 0.00 0.00 24 1019.2
20260502112520 89 112 2.0 0.0 0.00 0.00 0.00 22 1019.5
20260502111020 88 112 0.0 0.0 0.00 0.00 0.00 22 1019.7
20260502105520 89 292 0.0 0.0 0.00 0.00 0.00 24 1019.5
20260502104020 86 247 0.0 0.0 0.00 0.00 0.00 25 1019.7
20260502102520 83 0 2.0 0.0 0.00 0.00 0.00 26 1020.0
20260502101020 85 0 0.0 0.0 0.00 0.00 0.00 26 1020.2
20260502091020 82 270 2.0 0.0 0.00 0.00 0.00 27 1020.5
20260502071020 56 270 3.0 0.0 0.00 0.00 0.00 45 1020.7
20260502065520 53 202 2.0 0.0 0.00 0.00 0.00 45 1020.9